www.pogodaiklimat.ru

Погода и климат >> Архив погоды >> Туркменистан >> Дервезе


ПОГОДА в Дервезе

  • Прогноз погоды в Дервезе
  • Монитор погоды в Дервезе

АРХИВ ПОГОДЫ в Дервезе

Время (UTC), дата Ветер
(напр.,м/с)
 
Видим.   Явления Облачность Т
(С)
Тd
(С)
f
(%)
Тe
(С)
Тes
(С)
Комфортность P
(гПа)
Po
(гПа)
Тmin
(С)
Tmax
(С)
R
(мм)
R24
(мм)
S
(см)
12 12.06 В 4 20 км 4/0
[Ci fib]
+35.1 +1.9 12 +32 +37 жарко 1010.7 1001.0
15 12.06 В 4 20 км 8/0
[Ci fib]
+34.3 +3.8 15 +32 +32 жарко 1009.7 1000.1 +35.4
18 12.06 В 2 20 км 3/0
[Ci fib]
+28.6 +4.1 21 +27 +27 жарко 1010.2 1000.4 +35.4
21 12.06 В 2 20 км ясно +26.2 +5.6 27 +26 +26 жарко 1010.0 1000.1
00 13.06 В 2 20 км ясно +20.8 +3.0 31 +22 +22 комфорт 1009.8 999.7
03 13.06 В 2 20 км ясно +25.8 +3.2 23 +25 +29 комфорт 1009.9 1000.0 +20.4
06 13.06 В 2 20 км 6/0
[Ci fib]
+33.8 +5.0 17 +31 +46 жарко 1009.4 999.8 +20.4
09 13.06 В 2 20 км 8/0
[Ac trans Ci fib]
+36.4 +3.8 13 +33 +47 жарко 1008.0 998.4
12 13.06 В 2 20 км 8/0
[Ac trans Ci fib]
+36.5 +3.8 13 +33 +39 жарко 1006.8 997.2
15 13.06 В 2 20 км 8/0
[Ac trans Ci fib]
+36.3 +4.8 14 +33 +34 жарко 1006.4 996.8 +37.0
18 13.06 В 2 20 км 3/0
[Ci fib]
+30.5 +5.1 20 +29 +29 жарко 1006.7 996.9 +37.0
21 13.06 В 2 20 км ясно +27.2 +5.9 26 +26 +26 жарко 1006.9 997.1
00 14.06 В 2 20 км 3/0
[Ac trans]
+23.8 +5.8 31 +24 +24 комфорт 1006.6 996.6
03 14.06 штиль 0 20 км ясно +27.3 +6.4 26 +27 +32 жарко 1006.8 997.0 +22.2
06 14.06 З 2 20 км ясно +35.4 +4.5 15 +33 +49 жарко 1006.9 997.3 +22.2
09 14.06 З 2 20 км 3/0
[Ci fib]
+38.5 +1.1 10 +35 +53 опасность
солнечного
удара
1006.5 997.0
12 14.06 З 4 20 км 3/3 600 м
[Cu hum]
+39.2 -1.2 8 +35 +39 очень
жарко
1005.5 996.0
15 14.06 З 6 20 км 8/0
[Ac trans]
+37.6 +0.2 10 +34 +34 очень
жарко
1005.3 995.8 +39.7
18 14.06 СЗ 2 20 км 9/0
[Ac trans Ci fib]
+31.2 +2.1 16 +29 +29 жарко 1006.8 997.1 +39.7
21 14.06 З 4 20 км 5/0
[Ac trans]
+28.5 +3.6 20 +27 +27 жарко 1007.3 997.5
00 15.06 С 4 20 км 3/0
[Ac trans]
+23.7 +5.9 32 +24 +24 комфорт 1009.7 999.7
03 15.06 С 2 20 км ясно +25.2 +5.1 27 +25 +29 комфорт 1011.0 1001.1 +21.7
06 15.06 С 4 20 км ясно +30.7 +1.7 16 +28 +39 жарко 1011.5 1001.7 +21.7
09 15.06 СЗ 4 20 км ясно +33.8 -1.2 11 +30 +43 жарко 1011.2 1001.5
12 15.06 С 4 20 км ясно +35.3 +0.2 11 +32 +38 жарко 1010.1 1000.5
15 15.06 С 4 20 км ясно +33.6 +2.5 14 +31 +31 жарко 1010.0 1000.4 +35.7
18 15.06 СВ 2 20 км ясно +27.0 -0.7 16 +25 +25 комфорт 1011.0 1001.1 +35.7
21 15.06 СВ 2 20 км ясно +24.6 +1.3 22 +23 +23 комфорт 1011.5 1001.5
00 16.06 штиль 0 20 км ясно +18.8 +1.3 31 +19 +19 1011.7 1001.5
03 16.06 В 2 20 км ясно +23.9 +2.7 25 +23 +27 комфорт 1012.8 1002.8 +18.2
06 16.06 В 2 20 км ясно +31.2 +1.7 15 +28 +45 жарко 1012.4 1002.6 +18.2
09 16.06 В 2 20 км ясно +34.7 +2.5 13 +32 +51 опасность
солнечного
удара
1011.2 1001.5
12 16.06 штиль 0 20 км ясно +36.7 +1.7 11 +33 +45 жарко 1009.6 1000.0
15 16.06 СВ 2 20 км ясно +34.9 +2.1 13 +32 +32 жарко 1009.0 999.4 +37.0
18 16.06 СВ 2 20 км ясно +29.1 +2.3 18 +27 +27 жарко 1009.2 999.4 +37.0
21 16.06 В 2 20 км ясно +25.4 +2.1 22 +24 +24 комфорт 1009.5 999.6
00 17.06 В 4 20 км ясно +23.6 +3.6 27 +23 +23 комфорт 1009.1 999.1
03 17.06 В 4 20 км ясно +25.7 +3.0 23 +25 +27 комфорт 1008.7 998.8 +22.6
06 17.06 ЮВ 4 20 км ясно +34.2 +3.2 14 +31 +42 жарко 1008.6 999.0 +22.6
09 17.06 В 2 20 км ясно +37.3 +2.1 11 +34 +53 опасность
солнечного
удара
1007.7 998.2
12 17.06 штиль 0 20 км ясно +38.0 +1.3 10 +34 +46 очень
жарко
1006.2 996.7
15 17.06 СВ 2 20 км ясно +37.4 +4.0 13 +34 +35 очень
жарко
1005.9 996.4 +38.4
18 17.06 В 2 20 км ясно +31.3 +1.7 15 +29 +29 жарко 1006.6 996.9 +38.4
21 17.06 В 2 20 км ясно +28.4 +5.3 23 +27 +27 жарко 1007.0 997.2
00 18.06 В 2 20 км ясно +25.7 +5.8 28 +25 +25 комфорт 1006.3 996.4
03 18.06 В 4 20 км ясно +28.2 +4.6 22 +27 +29 жарко 1006.6 996.8 +25.1
06 18.06 Ю 6 20 км 4/0
[Ci fib]
+35.4 +2.7 13 +32 +38 жарко 1006.6 997.0 +25.1
09 18.06 Ю 4 20 км 9/8 600 м
[Cb cap Ac As]
+37.6 +4.1 13 +35 +36 очень
жарко
1006.2 996.7
12 18.06 Ю 4 20 км 9/0
[Ac und]
+39.7 +3.8 11 +37 +39 очень
жарко
1004.5 995.1
03 19.06 В 6 20 км 9/9 600 м
[Sc]
+29.3 +7.0 25 +28 +29 жарко 1005.3 995.5 +28.6

 

Местоположение метеостанции Дервезе (Дашогузский велаят, Туркменистан): широта 40.18 долгота 58.48 высота над уровнем моря 84 м.

В архиве по умолчанию представлена погода в Дервезе за последнюю неделю. Архивные данные за месяц целиком и за предыдущие месяцы, начиная с января 2011 года, Вы можете получить, выбрав интересующий диапазон дат из раскрывающегося списка и нажав кнопку "Ввод!".


*Определитесь, кто Вы:
робот инопланетянин человек

Внимание! Время в таблицах - всемирное. Для получения местного времени необходимо прибавить поправку, которая равна 5 ч.

Смотрите также архив погоды в соседних городах и на ближайших метеорологических станциях:

Погода в Ербенте (Ахалский велаят, Туркменистан) (96 км)
Погода в Екеже (Дашогузский велаят, Туркменистан) (112 км)
Погода в Акмолле (Ахалский велаят, Туркменистан) (142 км)
Погода в Шах-Сенеме (Дашогузский велаят, Туркменистан) (157 км)
Погода в Дашогузе (Дашогузский велаят, Туркменистан) (208 км)
Погода в Хиве (Хорезмская область, Узбекистан) (210 км)
Погода в Бахарлы (Ахалский велаят, Туркменистан) (215 км)
Погода в Сердаре (Балканский велаят, Туркменистан) (231 км)
Погода в Ургенче (Хорезмская область, Узбекистан) (234 км)
Погода в Кенеургенче (Дашогузский велаят, Туркменистан) (242 км)

Пояснения к столбцам:

Ветер - указаны скорость ветра в м/с - средняя за 10 мин, порывы в срок и между сроками (в фигурных скобках) и направление, откуда дует ветер: С - северный, СВ - северо-восточный, В - восточный, ЮВ - юго-восточный, Ю - южный, ЮЗ - юго-западный, З - западный, СЗ - северо-западный.
Видимость - горизонтальная дальность видимости в метрах или километрах. При видимости от 1 до 10 км при отсутствии осадков обычно наблюдается дымка, при ухудшении видимости до 1 км и менее - туман. В сухую погоду видимость может ухудшаться дымом, пылью или мглою.
Явления - указаны атмосферные явления, наблюдавшиеся в срок или в последний час перед сроком; фигурными скобками обозначены явления, наблюдавшиеся между сроками (за 1-3 часа до срока); квадратными скобками обозначены град или гололедные отложения с указанием их диаметра в мм.
Облачность - указаны через наклонную черту общая и нижняя облачность в баллах и высота нижней границы облаков в метрах; квадратными скобками обозначены формы облаков: Ci - перистые, Cs - перисто-слоистые, Cc - перисто-кучевые, Ac - высококучевые, As - высокослоистые, Sc - слоисто-кучевые, Ns - слоисто-дождевые, Cu - кучевые, Cb - кучево-дождевые. Подробнее классификацию облаков см. в Атласе облаков (PDF).
T - Температура воздуха - температура, измеренная на высоте 2 м над землей.
Td - Температура точки росы - температура, при понижении до которой содержащийся в воздухе водяной пар достигнет насыщения.
f - Относительная влажность воздуха - влажноcть воздуха, измеренная на высоте 2 м над землей.
Te - Эффективная температура - температура, которую ощущает одетый по сезону человек в тени. Характеристика душности погоды. При расчете учитывается влияние влажности воздуха и скорости ветра на теплоощущения человека.
Tes - Эффективная температура на солнце - температура, которую ощущает человек, с поправкой на солнечный нагрев. Характеристика знойности погоды. Зависит от высоты солнца над горизонтом, облачности и скорости ветра. Ночью, в пасмурную погоду, а также при ветре 12 м/с и более поправка равна нулю.
P - Атмосферное давление - приведенное к уровню моря атмосферное давление.
Po - Атмосферное давление - измеренное на уровне метеостанции атмосферное давление.
Tmin - Минимальная температура - минимум температуры воздуха на высоте 2 м над землей.
Tmax - Максимальная температура - максимум температуры воздуха на высоте 2 м над землей.
R - Количество осадков - Количество выпавших осадков за период времени, мм. При наведении курсора мыши на число - период времени, за который выпало указанное количество осадков.
R24 - Количество осадков - Количество выпавших осадков за 24 часа, мм.
S - Снежный покров - Высота снежного покрова, см. При наведении курсора мыши на число - состояние снежного покрова и степень покрытия местности в баллах.